Location: Apostolic Church
(38.0920°N, 89.0554°W)
Time: 01:22:32
(UTC+00:00)

Daily predictions for brighter satellites

Satellite Brightness Start Highest point End
(mag) Time Altitude Azimuth Time Altitude Azimuth Time Altitude Azimuth
STARLINK-1214 2.8 01:32:18 10° SW 01:35:23 78° SE 01:38:29 10° NE
STARLINK-1154 4.3 01:31:43 10° SSW 01:35:25 32° SE 01:39:07 10° ENE
Cosmos 2084 Rocket 3.4 01:31:20 10° SSW 01:35:30 60° ESE 01:39:45 10° NE
STARLINK-1132 3.6 01:31:29 10° NW 01:35:38 89° NE 01:39:46 10° SE
Abrixas rocket 3.3 01:32:50 10° WSW 01:35:39 43° NNW 01:38:31 10° NE
USA 186 0.9 01:34:28 10° SSE 01:36:48 86° E 01:39:16 10° N
ASTEX 1 3.9 01:32:51 10° SSE 01:37:23 41° ENE 01:41:58 10° N
STARLINK-1197 4.2 01:36:34 10° SSW 01:40:21 36° SE 01:44:10 10° ENE
STARLINK-1177 3.7 01:36:28 10° NW 01:40:36 83° SW 01:44:45 10° SE
Cosmos 1862 Rocket 3.5 01:36:11 10° S 01:40:37 74° E 01:45:00 10° N
Cosmos 1733 Rocket 3.0 01:37:58 10° N 01:42:20 70° E 01:46:39 10° SSE
Cosmos 1844 Rocket 2.7 01:37:13 10° SSW 01:42:52 78° ESE 01:48:33 10° NNE
Meteor 1-11 Rocket 3.8 01:37:28 10° N 01:43:08 85° W 01:48:41 10° S
STARLINK-1157 4.3 01:40:40 10° NNW 01:43:43 31° NE 01:46:44 10° E
STARLINK-1198 4.0 01:41:25 10° SSW 01:45:17 40° SE 01:49:10 10° ENE
STARLINK-1167 3.7 01:41:27 10° NW 01:45:35 75° SW 01:49:42 10° SE
Okean 1-7 4.2 01:43:24 10° SE 01:46:47 23° E 01:50:13 10° NE
Hubble Space Telescope 2.4 01:45:39 10° SW 01:48:38 19° S 01:51:31 10° SE
STARLINK-1199 3.9 01:46:20 10° SSW 01:50:17 44° SE 01:54:14 10° ENE
STARLINK-1168 3.8 01:46:26 10° NW 01:50:33 67° SW 01:54:38 10° SE
STARLINK-1210 3.8 01:51:13 10° SSW 01:55:13 50° SE 01:59:14 10° ENE
STARLINK-1164 4.0 01:51:27 10° NW 01:55:32 60° SW 01:59:27 11° SE
Resurs 01 Rocket 2.6 01:52:00 10° SE 01:55:57 32° ENE 01:59:55 10° N
MOS 1 Rocket 3.1 01:53:17 10° NNE 01:57:45 88° ESE 02:02:03 10° SSW
NOSS 2-3 (E) 3.9 01:54:43 10° S 01:58:37 40° ESE 02:02:54 10° NE
SPOT 3 Rocket 3.6 01:54:23 10° SSE 01:59:27 62° ENE 02:04:32 10° N
BREEZE-M DEB (TANK) 3.5 01:57:54 10° NW 02:00:10 32° NNE 02:02:09 12° E
STARLINK-1219 3.7 01:56:08 10° SSW 02:00:10 55° SE 02:04:14 10° ENE
STARLINK-1182 4.1 01:56:27 10° WNW 02:00:30 54° SW 02:04:14 12° SSE
STARLINK-1211 3.6 02:01:04 10° SW 02:05:08 62° SE 02:09:13 10° NE
STARLINK-1163 4.3 02:01:27 10° WNW 02:05:27 48° SW 02:09:01 12° SSE
Cosmos 1844 3.8 02:01:27 10° SSW 02:07:04 84° WNW 02:12:49 10° NNE
STARLINK-1245 3.5 02:06:01 10° SW 02:10:07 69° SE 02:14:14 10° NE
STARLINK-1172 4.4 02:06:29 10° WNW 02:10:26 43° SW 02:13:49 13° SSE
H-2A R/B 3.5 02:07:12 10° SSW 02:11:41 34° W 02:16:17 10° NNW
STARLINK-1156 4.5 02:08:47 10° NW 02:12:43 41° NE 02:15:52 15° ESE
Cosmos 2034 Rocket 4.0 02:06:44 10° N 02:12:54 69° E 02:19:01 10° SSE
Cosmos 1703 Rocket 3.6 02:10:16 10° S 02:14:30 58° E 02:18:45 10° NNE
STARLINK-1233 3.5 02:10:57 10° SW 02:15:05 77° SE 02:19:13 10° NE
Cosmos 1624 Rocket 4.4 02:10:08 10° S 02:15:08 44° ESE 02:20:10 10° NNE
Cosmos 1743 2.9 02:12:40 10° N 02:16:24 51° E 02:19:04 17° SSE
STARLINK-1148 4.3 02:13:44 10° NW 02:17:43 44° NE 02:20:39 17° ESE
NOSS 2-3 (D) 3.5 02:14:24 10° SSW 02:18:29 60° ESE 02:23:02 10° NE
STARLINK-1204 3.5 02:15:56 10° SW 02:20:03 85° SE 02:24:13 10° NE
Cosmos 1607 4.1 02:14:57 10° NNW 02:21:22 83° WSW 02:26:48 15° SSE
STARLINK-1158 4.2 02:18:41 10° NW 02:22:43 48° NE 02:25:26 19° ESE
Cosmos 1816 Rocket 4.4 02:18:41 10° S 02:24:50 80° E 02:30:58 10° N
STARLINK-1238 3.6 02:20:52 10° SW 02:25:00 88° NW 02:29:10 10° NE
STARLINK-1162 4.1 02:23:37 10° NW 02:27:41 53° NE 02:30:12 21° ESE
Cosmos 1140 Rocket 4.4 02:23:12 10° N 02:27:54 33° ENE 02:30:46 20° ESE
USA 229 DEB 4.1 02:22:31 10° SW 02:28:55 63° NW 02:35:40 10° NNE
USA 229 4.1 02:22:38 10° SW 02:29:02 63° NW 02:35:46 10° NNE
Cosmos 1371 Rocket 3.9 02:23:49 10° S 02:29:03 70° ESE 02:34:15 10° NNE
STARLINK-1201 3.7 02:25:52 10° SW 02:30:00 79° NW 02:34:09 10° NE
Cosmos 389 Rocket 2.7 02:26:46 10° SSW 02:30:09 66° W 02:33:38 10° N
Cosmos 614 Rocket 4.0 02:25:24 10° N 02:30:26 61° ENE 02:33:42 22° SE
Cosmos 1908 Rocket 3.6 02:26:30 10° N 02:30:58 89° WSW 02:34:36 15° S
Cosmos 1975 3.4 02:29:52 10° N 02:33:44 41° E 02:35:28 26° SE
Aureole 1 Rocket 4.0 02:29:51 10° N 02:33:53 39° ENE 02:36:37 23° SE
STARLINK-1206 3.9 02:30:51 10° SW 02:34:59 72° NW 02:39:07 10° NE
NOSS 3-1 (C) 4.4 02:31:53 10° SW 02:37:04 47° NW 02:43:00 10° NNE
Resurs 1-3 4.1 02:33:06 11° S 02:37:14 56° W 02:41:34 10° NNW
STARLINK-1159 3.8 02:33:33 10° NW 02:37:41 64° NE 02:39:47 27° ESE
NOSS 3-1 (A) 3.4 02:32:47 10° SW 02:38:06 76° WNW 02:44:14 10° NNE
Okean 1 3.7 02:35:43 10° SSW 02:39:42 65° W 02:43:44 10° N
STARLINK-1205 4.0 02:35:52 10° WSW 02:39:58 65° NW 02:44:05 10° NE
ERS-1 Rocket 4.3 02:40:27 19° ESE 02:42:30 25° ENE 02:46:35 10° NNE
STARLINK-1171 3.7 02:38:32 10° NW 02:42:41 71° NE 02:44:35 30° ESE
STARLINK-1218 4.2 02:40:51 10° WSW 02:44:55 59° NW 02:49:02 10° NE
Cosmos 2082 Rocket 4.1 02:43:09 10° N 02:46:58 18° NE 02:49:50 13° E
STARLINK-1155 3.6 02:43:30 10° NW 02:47:39 78° NE 02:49:22 34° ESE
Spot 2 Rocket 3.6 02:45:52 27° SE 02:48:30 57° ENE 02:53:26 10° N
Iridium 51 4.3 02:46:22 21° S 02:49:05 83° E 02:53:00 10° N
NOSS 2-3 (C) 4.0 02:45:07 10° SW 02:49:15 63° NW 02:53:59 10° NNE
SeaSat 1 4.5 02:47:00 10° ENE 02:47:36 11° E 02:47:36 11° E
STARLINK-1254 4.4 02:45:53 10° WSW 02:49:55 54° NW 02:54:00 10° NE
Cosmos 1356 3.3 02:47:08 10° N 02:50:36 86° E 02:51:44 40° SSE
STARLINK-1166 3.5 02:48:28 10° NW 02:52:38 86° NE 02:54:08 38° SE
Cosmos 1634 Rocket 4.1 02:48:30 10° N 02:54:47 65° E 02:58:25 26° SSE
Cosmos 1833 Rocket 3.7 02:50:36 10° N 02:55:35 32° ENE 02:57:57 23° E
Cosmos 1437 Rocket 4.5 02:58:27 18° ENE 02:58:27 18° ENE 03:00:19 10° NE
STARLINK-1165 3.5 02:53:27 10° NW 02:57:36 86° SW 02:58:55 42° SE
Cosmos 2056 Rocket 3.6 02:52:35 10° SSW 02:57:41 75° WNW 03:02:48 10° NNE
SEDSat Delta rocket 4.3 02:52:23 10° WSW 02:58:47 46° S 03:01:27 30° SE
CZ-2C R/B 4.4 02:55:59 10° N 03:00:56 33° WNW 03:05:53 10° SW
STARLINK-1169 3.5 02:58:26 10° NW 03:02:34 78° SW 03:03:42 46° SSE
Meteor 2-9 Rocket 4.0 02:57:24 10° N 03:02:49 86° E 03:05:32 30° S
Cosmos 44 Rocket 4.1 03:00:15 10° NW 03:04:54 44° WSW 03:07:23 25° S
Cosmos 1023 Rocket 4.4 03:00:42 10° NNW 03:05:55 78° ENE 03:08:03 37° SSE
STARLINK-1178 3.6 03:03:25 10° NW 03:07:32 70° SW 03:08:29 49° SSE
IGS 5A 3.3 03:10:01 48° SSE 03:11:08 81° ENE 03:15:18 10° N
STARLINK-1120 3.7 03:08:25 10° NW 03:12:31 63° SW 03:13:16 51° S
Terra 2.8 03:14:02 28° E 03:14:54 30° ENE 03:19:02 10° N
Okean 3 3.4 03:13:52 39° S 03:15:25 88° W 03:19:46 10° N
Cosmos 2278 Rocket 2.2 03:11:09 10° SSW 03:16:49 85° WNW 03:22:32 10° NNE
CREW DRAGON DEMO-1 DEB 3.2 03:14:21 10° NW 03:17:09 61° N 03:17:09 61° N
STARLINK-1131 3.8 03:13:24 10° NW 03:17:28 56° SW 03:18:02 50° SSW
Lacrosse 5 3.8 03:14:42 10° NNW 03:18:36 22° NNE 03:21:33 14° ENE
Cosmos 1300 Rocket 3.6 03:17:43 10° N 03:22:07 59° E 03:22:41 54° ESE
USA 245 3.5 03:21:31 48° SSW 03:22:15 60° WSW 03:25:31 10° NNW
STARLINK-1190 3.9 03:18:23 10° WNW 03:22:23 50° SW 03:22:47 48° SSW
Meteor 1-4 Rocket 4.1 03:23:36 19° SW 03:25:24 31° WNW 03:28:32 10° NNW
Cosmos 2221 Rocket 3.7 03:24:22 36° SSW 03:26:06 72° W 03:30:38 10° N
STARLINK-1129 4.1 03:23:25 10° WNW 03:27:23 45° SW 03:27:36 44° SW
Cosmos 1452 Rocket 3.4 03:26:55 43° S 03:28:36 71° ESE 03:33:52 10° NNE
Hubble Space Telescope 3.1 03:26:07 10° SW 03:26:52 13° SW 03:26:52 13° SW
Intercosmos 24 3.6 03:27:50 10° N 03:31:18 77° NE 03:31:18 77° NE
STARLINK-1269 4.3 03:33:22 41° ENE 03:33:22 41° ENE 03:36:11 10° NE
STARLINK-1134 4.3 03:28:28 10° WNW 03:32:22 40° SW 03:32:25 40° SW
Resurs 01 Rocket 3.8 03:29:31 12° SW 03:32:27 21° W 03:35:50 10° NW
Cosmos 1674 Rocket 3.7 03:33:06 53° E 03:33:06 53° E 03:37:11 10° NNE
Meteor 1-12 Rocket 4.1 03:27:20 10° N 03:33:00 83° E 03:34:43 47° SSE
STARLINK-1095 4.4 03:30:42 10° NW 03:34:40 43° NE 03:35:15 40° ENE
Cosmos 1420 Rocket 4.2 03:31:38 21° SSW 03:35:06 68° WNW 03:40:18 10° NNE
Cosmos 371 Rocket 3.1 03:34:23 52° S 03:35:32 83° ESE 03:40:26 10° NNE
Cosmos 407 Rocket 4.5 03:31:32 10° NNW 03:36:31 41° WSW 03:38:42 28° SSW
STARLINK-1200 4.1 03:38:09 47° NE 03:38:09 47° NE 03:41:11 10° NE
STARLINK-1077 4.2 03:35:39 10° NW 03:39:40 47° NE 03:40:01 45° NE
Cosmos 1378 Rocket 4.0 03:40:42 46° ENE 03:40:42 46° ENE 03:44:28 10° NNE
STARLINK-1192 4.0 03:42:55 54° NE 03:42:55 54° NE 03:46:10 10° NE
ERBS 3.7 03:42:53 23° W 03:44:23 37° NW 03:47:30 10° NNE
STARLINK-1075 4.1 03:40:36 10° NW 03:44:39 51° NE 03:44:48 51° NE
ATLAS 3B CENTAUR R/B 4.1 03:37:23 10° SW 03:43:02 22° SSW 03:43:02 22° SSW
SPOT 1/Viking Rocket 4.0 03:45:02 40° SSW 03:46:33 55° W 03:51:38 10° NNW
STARLINK-1244 3.9 03:47:40 60° NE 03:47:40 60° NE 03:51:07 10° NE
Meteor 1-13 Rocket 4.4 03:46:32 34° SSW 03:48:56 67° W 03:54:35 10° N
STARLINK-1093 4.0 03:45:34 10° NW 03:49:36 56° NE 03:49:36 56° NE
SPOT 5 2.9 03:49:22 63° S 03:50:13 83° WSW 03:55:29 10° NNW
Meteor 1-23 Rocket 4.2 03:49:57 58° SE 03:50:50 68° E 03:56:30 10° NNE
STARLINK-1138 3.9 03:52:27 64° NNE 03:52:27 64° NNE 03:56:05 10° NE
COSMOS 2406 3.7 03:47:13 10° NNW 03:52:49 53° WSW 03:54:17 42° SSW
STARLINK-1074 4.0 03:50:32 10° NW 03:54:22 60° NNE 03:54:22 60° NNE
STARLINK-1203 3.8 03:54:43 66° WNW 03:55:00 69° NW 03:59:12 10° NE
STARLINK-1143 3.9 03:57:15 64° N 03:57:15 64° N 04:01:04 10° NE
SL-4 R/B 3.6 03:54:27 10° N 03:55:53 21° N 03:55:53 21° N
Okean 2 Rocket 3.9 03:55:01 10° NNW 03:59:12 42° W 03:59:44 40° WSW
STARLINK-1241 4.0 04:01:57 61° NW 04:01:57 61° NW 04:06:01 10° NE
STARLINK-1088 4.1 04:00:27 10° NW 04:03:56 59° NNW 04:03:56 59° NNW
Cosmos 1741 Rocket 4.1 04:00:34 10° NNW 04:05:45 62° ENE 04:05:54 62° E
STARLINK-1239 4.2 04:06:42 55° NW 04:06:54 55° NW 04:10:59 10° NE
BREEZE-M DEB (TANK) 4.1 03:57:47 10° NW 04:09:07 54° NNE 04:10:59 35° E
STARLINK-1115 4.2 04:05:24 10° NW 04:08:42 55° NW 04:08:42 55° NW
USA 215 4.4 04:07:45 19° E 04:11:45 37° NNE 04:17:39 10° NNW
STARLINK-1240 4.4 04:11:30 48° WNW 04:11:54 51° NW 04:15:57 10° NE
Cosmos 2151 Rocket 4.3 04:07:59 10° NNW 04:12:19 45° W 04:12:27 45° W
Cosmos 972 Rocket 4.3 04:11:48 65° S 04:12:47 86° ESE 04:19:19 10° NNE
Nadezhda 4 Rocket 3.9 04:11:46 58° SSW 04:13:06 84° W 04:19:16 10° N
Cosmos 2297 3.5 04:12:54 76° SSE 04:13:11 79° ESE 04:18:53 10° NNE
ISS -1.2 04:10:47 10° NNW 04:13:01 19° NNE 04:13:01 19° NNE
STARLINK-1076 4.4 04:10:24 10° NW 04:13:29 49° NW 04:13:29 49° NW
BREEZE-M DEB 3.9 04:15:51 41° NNW 04:15:51 41° NNW 04:21:01 10° NE
Okean 1 Rocket 3.4 04:11:48 10° N 04:15:37 63° N 04:15:37 63° N
Cosmos 1850 Rocket 3.9 04:14:19 10° NNW 04:19:42 88° ENE 04:19:43 87° E
ERS-1 Rocket 4.0 04:20:26 33° WSW 04:21:05 34° W 04:25:40 10° NNW
Cosmos 304 Rocket 3.9 04:23:56 69° NW 04:23:56 69° NW 04:28:30 10° NNE
Cosmos 1110 Rocket 3.9 04:24:15 78° NE 04:24:15 78° NE 04:29:07 10° NNE
SeaSat 1 2.5 04:22:15 10° NNE 04:27:10 71° WNW 04:27:22 70° W
Cosmos 2082 Rocket 2.2 04:25:54 10° NNW 04:31:35 68° WSW 04:31:41 68° WSW
Cosmos 1833 Rocket 3.7 04:34:28 10° NW 04:39:26 33° WSW 04:39:38 33° WSW
Cosmos 2369 Rocket 3.2 04:44:15 35° ENE 04:44:15 35° ENE 04:48:02 10° NE
Cosmos 1331 Rocket 4.2 04:47:37 63° WNW 04:47:37 63° WNW 04:52:34 10° NNE
ALOS 2 4.3 04:48:55 26° NE 04:48:55 26° NE 04:51:41 10° N
BREEZE-M DEB (TANK) 3.8 04:49:20 65° WNW 04:49:48 70° NNW 05:00:50 10° NE
Cosmos 1092 Rocket 4.0 04:50:48 63° WSW 04:51:24 67° W 04:57:31 10° N
Cosmos 1302 Rocket 4.5 04:53:01 54° NE 04:53:01 54° NE 04:57:10 10° NNE
Cosmos 1943 Rocket 2.4 04:53:31 59° NE 04:53:31 59° NE 04:58:06 10° NNE
Terra 3.4 04:52:55 25° W 04:52:55 25° W 04:56:32 10° NW
ATLAS 2AS CENTAUR R/B 3.8 04:58:04 36° E 04:58:04 36° E 05:04:26 10° NE
Spot 4 4.3 04:59:52 58° N 04:59:52 58° N 05:03:48 10° NNW
Cosmos 1627 Rocket 4.5 04:59:54 72° WSW 05:00:17 74° W 05:06:40 10° N
Nimbus 7 Rocket 4.5 04:54:23 10° NNE 05:00:05 67° ENE 05:00:05 67° ENE
Lacrosse 5 2.6 04:57:00 10° NW 05:00:44 49° NW 05:00:44 49° NW
Meteor 2-13 Rocket 4.4 05:08:58 78° W 05:09:00 78° W 05:15:12 10° N
Thor Agena Rocket 4.3 05:05:14 10° N 05:10:18 46° WNW 05:10:27 46° WNW
USA 238 DEB 4.4 05:09:29 10° NNW 05:16:34 52° NE 05:18:34 42° E
USA 238 4.4 05:09:35 10° NNW 05:16:39 52° NE 05:18:41 42° E
COSMOS 2455 4.5 05:21:01 22° E 05:21:01 22° E 05:23:57 10° NE
Cosmos 1655 Rocket 4.1 05:22:16 65° ENE 05:22:16 65° ENE 05:28:05 10° NNE
S3M 4.1 05:20:47 10° N 05:26:39 61° ENE 05:26:39 61° ENE
Cosmos 1656 Rocket 4.4 05:37:54 46° ENE 05:37:54 46° ENE 05:42:05 10° NNE
APEX 4.5 05:39:53 80° NE 05:39:53 80° NE 05:45:35 10° NNE
ATLAS CENTAUR R/B 4.1 05:45:24 13° ENE 05:45:24 13° ENE 05:46:00 10° NE
Cosmos 1553 Rocket 4.1 05:38:08 10° NNW 05:44:06 68° WNW 05:44:06 68° WNW
USA 215 3.3 05:55:04 65° W 05:55:04 65° W 06:00:59 10° NW
Cosmos 2266 Rocket 4.1 06:14:24 64° WNW 06:14:24 64° WNW 06:20:11 10° N
NOSS 3-2 (C) 4.1 06:06:37 10° NNW 06:14:25 78° ENE 06:16:38 53° SE
EO 1 Delta rocket 4.4 06:10:39 10° N 06:16:01 69° N 06:16:01 69° N
Cosmos 968 Rocket 4.4 06:14:25 10° NNW 06:17:58 42° NW 06:17:58 42° NW
NOSS 3-4 (A) 3.4 06:19:43 72° NW 06:19:43 72° NW 06:25:45 10° NNE
NOSS 3-4 (C) 3.4 06:19:49 73° NW 06:19:49 73° NW 06:25:52 10° NNE
Helios 1B rocket 4.1 06:15:53 10° NNE 06:18:08 32° NNE 06:18:08 32° NNE
Cosmos 1354 Rocket 4.5 06:16:47 10° NNW 06:21:04 59° N 06:21:04 59° N
Cosmos 2369 Rocket 3.7 06:25:59 26° WNW 06:26:52 27° WNW 06:31:37 10° N
Meteor 1-24 Rocket 4.3 06:28:36 45° ENE 06:28:36 45° ENE 06:33:02 10° NNE
ATLAS 3B R/B 3.7 06:23:01 10° NNW 06:29:26 41° NE 06:34:07 19° ESE
CENTAUR R/B 3.1 06:25:10 10° NNW 06:33:30 86° ENE 06:36:06 52° SE
CZ-2D R/B 3.9 06:30:29 10° NE 06:34:13 20° E 06:34:13 20° E
Meteor 2-14 Rocket 4.5 06:36:09 67° E 06:36:09 67° E 06:42:10 10° NNE
Cosmos 2098 Rocket 4.1 06:36:17 69° W 06:36:30 69° W 06:43:45 10° N
Cosmos 1943 Rocket 4.3 06:34:59 14° WNW 06:36:53 16° NW 06:40:16 10° NNW
Cosmos 1809 Rocket 4.3 06:38:44 87° NE 06:38:44 87° NE 06:44:51 10° N
Meteor 2-5 Rocket 3.8 06:42:41 73° N 06:42:41 73° N 06:47:42 10° N
Resurs 1-4 Rocket 3.6 06:39:05 10° NE 06:43:25 26° E 06:43:25 26° E
Cosmos 2058 Rocket 4.3 06:39:36 10° N 06:42:49 40° NE 06:42:49 40° NE
Cosmos 2228 4.5 06:40:24 10° N 06:42:50 33° NNW 06:42:50 33° NNW
ATLAS 2AS CENTAUR R/B 3.5 06:45:28 39° W 06:48:06 52° NW 06:55:52 10° NNE
Cosmos 921 Rocket 4.4 06:50:43 33° NE 06:50:43 33° NE 06:53:22 10° NNE
Cosmos 1626 4.2 06:52:42 26° NNE 06:52:42 26° NNE 06:54:28 10° N
Cosmos 2315 Rocket 4.2 06:45:49 10° NNW 06:51:33 56° W 06:51:33 56° W
GEOS 3 Rocket 3.9 06:51:55 60° ENE 06:52:20 62° NE 06:57:31 10° NNW
SL-08 R/B 4.4 06:59:58 75° SE 07:00:25 80° E 07:06:47 10° N
COSMOS 2455 3.3 07:04:08 46° WNW 07:04:44 48° WNW 07:10:33 10° NNE
CZ-4C R/B 4.1 07:06:15 15° ESE 07:06:15 15° ESE 07:08:55 10° ENE
IRAS Rocket 4.1 07:06:53 87° WNW 07:06:53 87° WNW 07:12:25 10° NNW
SL-4 R/B 3.5 07:11:24 38° NW 07:11:49 38° NNW 07:16:18 10° NE
Cosmos 1386 Rocket 4.4 07:16:10 64° SE 07:16:55 71° E 07:23:00 10° N
MOZ.5/SAFIR/RUBIN 5/SL-8 4.1 07:18:53 61° ENE 07:18:53 61° ENE 07:23:19 10° N
ATLAS CENTAUR R/B 3.0 07:21:34 28° NW 07:21:34 28° NW 07:24:52 10° N
Meteor 2-16 Rocket 4.3 07:24:08 67° WSW 07:24:38 71° W 07:30:47 10° N
Cosmos 1455 4.3 07:25:35 10° NNE 07:28:26 20° ENE 07:28:55 20° E
Cosmos 1602 Rocket 3.9 07:30:32 61° NE 07:30:32 61° NE 07:34:15 10° NNE
CZ-4B R/B 3.8 07:29:20 10° NNE 07:34:26 57° ESE 07:35:01 54° SE
FALCON 9 R/B 3.4 07:32:38 40° WSW 07:35:38 74° S 07:59:02 10° E
Cosmos 2297 Rocket 3.5 07:33:12 10° N 07:38:26 38° ENE 07:43:38 10° SE
RESURS DK-1 3.7 07:42:47 31° NW 07:42:47 31° NW 07:45:59 10° N
Nadezhda 1 Rocket 3.9 07:36:49 10° N 07:43:00 79° W 07:44:15 58° SSW
GP-B 4.1 07:40:57 10° NNE 07:45:09 40° E 07:45:56 37° ESE
Cosmos 1703 4.5 07:48:14 35° E 07:48:26 35° E 07:52:03 10° NNE
Cosmos 1356 Rocket 3.9 07:47:03 10° NNW 07:50:19 51° NW 07:50:19 51° NW
BREEZE-M R/B 4.0 07:51:52 36° WNW 07:52:36 39° NW 07:55:40 10° NE
CZ-4C R/B 4.0 07:53:36 48° NW 07:53:36 48° NW 07:56:58 10° NNW
IRS-1D 3.9 07:50:32 10° NNE 07:55:49 60° E 07:57:12 45° SSE
SL-16 R/B 2.4 07:56:22 50° S 07:58:01 72° WSW 08:04:12 10° NNW
ATLAS CENTAUR R/B 3.7 07:56:56 10° NNW 08:00:06 38° NE 08:07:02 10° ESE
Timation 2 Rocket 4.0 07:57:16 10° NNW 08:03:20 53° WSW 08:04:08 49° SW
Cosmos 1763 Rocket 3.5 08:03:51 53° SSE 08:04:57 71° ESE 08:10:02 10° NNE
Meteor 2-1 Rocket 4.1 08:00:40 10° NNW 08:06:10 73° W 08:07:29 52° SSW
Cosmos 1758 Rocket 3.3 08:08:01 76° S 08:08:21 89° E 08:12:43 10° N
Cosmos 1697 Rocket 3.0 08:10:09 39° SSE 08:12:06 60° ESE 08:17:41 10° NNE
IRS-P3 4.4 08:08:31 10° NNE 08:13:48 62° ESE 08:15:56 35° SSE
Cosmos 2227 Rocket 2.5 08:08:32 10° NNW 08:14:12 64° ENE 08:19:48 10° SSE
CZ-2D R/B 2.6 08:09:35 10° N 08:14:33 44° WNW 08:15:32 39° W
ADEOS II 2.2 08:10:39 10° NNE 08:15:54 71° ESE 08:17:53 39° S
Lacrosse 4 Rocket 4.4 08:15:16 10° N 08:18:07 17° NE 08:20:55 10° E
USA 81 4.3 08:19:00 44° WSW 08:19:55 49° W 08:25:03 10° N
ATLAS 3B R/B 3.1 08:13:46 10° NW 08:20:04 39° WSW 08:21:15 37° SW
Resurs 1-4 Rocket 2.9 08:18:31 10° N 08:23:18 36° WNW 08:24:31 32° W
STARLINK-1320 4.4 08:23:23 29° NNW 08:23:23 29° NNW 08:26:06 10° NNE
CENTAUR R/B 4.4 08:17:33 10° WNW 08:23:12 22° WSW 08:23:12 22° WSW
STARLINK-1322 4.4 08:23:42 29° NNW 08:23:42 29° NNW 08:26:26 10° NNE
STARLINK-1324 4.4 08:24:03 29° NNW 08:24:03 29° NNW 08:26:48 10° NNE
STARLINK-1294 4.4 08:24:19 29° NNW 08:24:19 29° NNW 08:27:05 10° NNE
STARLINK-1261 4.4 08:24:41 29° NNW 08:24:41 29° NNW 08:27:26 10° NNE
Cosmos 1953 Rocket 3.7 08:23:20 43° SSE 08:24:42 73° E 08:29:09 10° NNE
STARLINK-1325 4.4 08:25:01 28° NW 08:25:01 28° NW 08:27:47 10° NNE
Cosmos 2181 Rocket 4.1 08:18:36 10° N 08:25:04 85° E 08:29:37 21° S
SJ 16-02 1.3 08:20:41 10° NNW 08:25:08 87° ENE 08:26:56 36° SSE
STARLINK-1333 4.4 08:25:20 28° NW 08:25:20 28° NW 08:28:06 10° NNE
ARIANE 5 R/B 3.1 08:20:42 10° NNE 08:25:37 51° E 08:28:16 26° SSE
STARLINK-1334 4.4 08:25:39 28° NW 08:25:41 28° NW 08:28:26 10° NNE
STARLINK-1326 4.4 08:25:59 28° NW 08:26:02 28° NW 08:28:47 10° NNE
STARLINK-1323 4.4 08:26:18 28° NW 08:26:21 28° NW 08:29:07 10° NNE
STARLINK-1349 4.4 08:26:37 28° NW 08:26:41 28° NW 08:29:26 10° NNE
STARLINK-1336 4.4 08:26:59 27° NW 08:27:04 27° NW 08:29:49 10° NNE
STARLINK-1331 4.4 08:27:17 27° NW 08:27:22 27° NNW 08:30:06 10° NNE
STARLINK-1344 4.5 08:27:36 27° NW 08:27:43 27° NW 08:30:27 10° NNE
STARLINK-1343 4.5 08:27:56 27° NW 08:28:03 27° NNW 08:30:47 10° NNE
STARLINK-1346 4.5 08:28:14 27° NW 08:28:24 27° NNW 08:31:10 10° NNE
STARLINK-1328 4.5 08:28:36 26° NW 08:28:45 27° NW 08:31:29 10° NNE
STARLINK-1347 4.5 08:29:15 26° NW 08:29:26 26° NNW 08:32:09 10° NNE
STARLINK-1357 4.5 08:29:33 26° NW 08:29:45 26° NNW 08:32:27 10° NNE
STARLINK-1338 4.4 08:31:19 30° NW 08:31:53 32° NW 08:35:03 10° NNE
NPP 4.5 08:27:31 10° N 08:32:23 36° WNW 08:33:57 30° WSW
Cosmos 1898 Rocket 3.5 08:27:43 10° NNW 08:33:05 86° ENE 08:37:43 14° SSE
Cosmos 468 Rocket 4.3 08:32:55 38° WSW 08:34:24 50° WNW 08:39:24 10° N
Cosmos 1656 4.2 08:34:04 33° WSW 08:36:06 46° WNW 08:41:32 10° N
Cosmos 1570 Rocket 4.0 08:34:45 35° SSW 08:37:05 86° ESE 08:42:25 10° NNE
Cosmos 2208 Rocket 4.1 08:37:50 31° S 08:40:22 76° ESE 08:45:39 10° NNE
ERS-2 3.3 08:37:30 11° SE 08:40:46 43° ENE 08:44:16 10° N
IDEFIX/ARIANE 42P 3.9 08:36:03 10° NNE 08:40:53 36° E 08:45:41 10° SSE
Cosmos 1328 4.1 08:41:34 44° WSW 08:42:10 48° W 08:46:02 10° N
Cosmos 1937 Rocket 3.7 08:37:38 10° NNW 08:42:53 75° ENE 08:48:09 10° SSE
Cosmos 2369 3.7 08:43:42 32° SW 08:46:22 74° WNW 08:52:01 10° NNE
Meteor 2-10 Rocket 4.0 08:43:55 10° NNW 08:48:48 40° W 08:50:25 31° SW
Cosmos 2360 4.2 08:46:30 28° SSW 08:49:36 87° ESE 08:55:20 10° NNE
CSL-04 DEB 4.5 08:50:01 16° SSE 08:53:20 87° E 08:57:39 10° NNW
CZ-4C R/B 2.2 08:51:25 31° WSW 08:53:43 60° NW 08:59:22 10° NNE
Cosmos 1814 Rocket 4.0 08:52:02 26° SSW 08:55:06 89° W 09:00:29 10° NNE
Alouette 2 Rocket 4.4 08:51:21 10° NNW 08:56:32 37° W 08:57:53 30° SW
Cosmos 2285 Rocket 4.0 08:50:57 10° NNW 08:57:21 90° WSW 09:03:40 10° SSE
Meteor 1-28 Rocket 3.2 08:58:43 14° SSE 09:01:57 83° ENE 09:05:44 10° N
STARLINK-1204 4.4 08:58:25 10° NW 09:02:30 54° NE 09:06:33 10° ESE
Cosmos 858 Rocket 4.4 08:58:27 10° NNW 09:03:41 70° WSW 09:08:55 10° S
Cosmos 1455 3.6 09:01:05 10° NW 09:03:48 21° W 09:03:48 21° W
Cosmos 1980 Rocket 2.2 09:00:48 22° SSW 09:04:31 87° ESE 09:10:11 10° NNE
Cosmos 2219 4.0 09:02:22 10° NW 09:07:12 30° WSW 09:09:29 22° SW
STARLINK-1238 4.2 09:03:22 10° NW 09:07:28 59° NE 09:11:33 10° ESE
Cosmos 1892 4.4 09:07:49 10° SSE 09:11:15 32° E 09:14:41 10° NNE
CZ-2D R/B 3.4 09:07:20 10° N 09:11:29 76° WNW 09:14:20 20° SSW
STARLINK-1201 4.0 09:08:20 10° NW 09:12:27 66° NE 09:16:34 10° ESE
CZ-4C R/B 3.4 09:09:18 10° SSE 09:12:48 66° ENE 09:16:25 10° N
Cosmos 540 Rocket 3.7 09:11:42 22° SW 09:14:48 53° WNW 09:19:50 10° N
STARLINK-1206 3.9 09:13:18 10° NW 09:17:27 72° NE 09:21:34 10° SE
Cosmos 1869 4.2 09:15:02 10° N 09:18:49 48° E 09:22:33 10° SSE
Cosmos 1400 Rocket 2.9 09:15:39 10° NNW 09:19:42 57° W 09:23:30 11° S
Nadezhda 3 Rocket 4.2 09:15:46 10° N 09:22:04 79° E 09:28:23 10° S
Cosmos 2297 Rocket 3.1 09:17:33 10° NW 09:22:16 28° WSW 09:25:53 15° SSW
STARLINK-1205 3.7 09:18:16 10° NW 09:22:25 80° NE 09:26:34 10° SE
STARLINK-1212 3.6 09:20:23 10° WNW 09:23:10 30° SW 09:25:56 10° SSE
Cosmos-2242 4.4 09:20:04 10° NW 09:23:16 21° W 09:24:34 18° WSW
STARLINK-1105 3.6 09:20:51 10° WNW 09:23:37 30° SW 09:26:22 10° SSE
STARLINK-1247 3.6 09:21:47 10° WNW 09:24:33 29° SW 09:27:18 10° SSE
STARLINK-1227 3.6 09:22:15 10° WNW 09:24:58 29° SW 09:27:42 10° SSE
Cosmos 2221 2.7 09:21:11 10° N 09:25:31 74° E 09:29:52 10° SSE
STARLINK-1226 3.7 09:23:06 10° WNW 09:25:50 28° SW 09:28:34 10° SSE
Cosmos 2082 3.8 09:20:57 10° NNW 09:26:27 54° WSW 09:31:54 10° S
STARLINK-1215 3.7 09:24:04 10° WNW 09:26:48 28° SW 09:29:30 10° SSE
STARLINK-1218 3.6 09:23:13 10° NW 09:27:23 88° NE 09:31:31 10° SE
IRIDIUM 106 4.3 09:22:33 10° S 09:27:46 81° W 09:33:00 10° N
Cosmos 2278 4.1 09:23:50 18° SW 09:27:52 49° WNW 09:33:21 10° NNE
Cosmos 841 Rocket 4.3 09:24:51 18° SW 09:28:15 37° WNW 09:33:07 10° N
STARLINK-1217 3.8 09:25:52 10° WNW 09:28:33 27° SW 09:31:13 10° S
STARLINK-1229 3.8 09:26:48 10° WNW 09:29:28 26° SW 09:32:08 10° S
COBE Rocket 4.2 09:25:08 10° S 09:29:49 48° W 09:34:40 10° NNW
BREEZE M DEB (TANK) 3.5 09:26:53 10° WNW 09:30:07 78° SW 09:40:43 10° SE
STARLINK-1270 3.9 09:27:41 10° WNW 09:30:20 25° SW 09:32:58 10° S
STARLINK-1189 3.9 09:29:33 10° WNW 09:32:09 24° SW 09:34:45 10° S
STARLINK-75 4.4 09:29:58 13° S 09:32:18 29° SE 09:35:09 10° ENE
Cosmos 372 Rocket 3.9 09:27:10 10° NNW 09:32:19 89° WSW 09:37:28 10° SSE
STARLINK-1254 3.5 09:28:13 10° NW 09:32:22 84° SW 09:36:30 10° SE
STARLINK-1188 3.9 09:30:28 10° WNW 09:33:03 24° SW 09:35:37 10° S
SL-08 R/B 4.1 09:30:05 14° SSW 09:33:22 30° W 09:37:28 10° NW
STARLINK-1187 4.2 09:32:42 15° W 09:34:04 20° SW 09:36:26 10° S
Cosmos 2322 Rocket 3.6 09:30:21 10° SSE 09:35:25 36° ESE 09:40:29 10° NE
STARLINK-1191 4.0 09:32:59 10° WNW 09:35:28 22° SW 09:37:57 10° S
SAR-Lupe-4 4.5 09:32:08 10° SSE 09:35:35 52° ENE 09:39:06 10° N
STARLINK-1221 4.1 09:33:51 10° WNW 09:36:20 22° SW 09:38:48 10° S
STARLINK-1222 4.1 09:34:47 10° WNW 09:37:14 21° SW 09:39:40 10° S
STARLINK-1231 3.5 09:33:13 10° NW 09:37:22 76° SW 09:41:29 10° SE
Cosmos 2263 Rocket 3.7 09:32:29 10° N 09:37:46 41° ENE 09:42:59 10° SE
STARLINK-1214 4.1 09:35:43 10° WNW 09:38:08 21° SW 09:40:32 10° S
STARLINK 1040 2.6 09:37:55 19° WSW 09:39:32 61° NW 09:42:05 10° NE
Cosmos 1315 Rocket 2.8 09:36:10 10° N 09:40:06 82° E 09:44:01 10° S
CZ-2C R/B 3.0 09:36:46 10° N 09:40:21 50° WNW 09:43:43 12° SSW
STARLINK-1232 3.5 09:38:13 10° NW 09:42:20 69° SW 09:46:26 10° SE
In-Cosmos 22 Rocket 4.3 09:36:54 10° S 09:42:41 88° W 09:48:21 10° N
PAYLOAD A 4.4 09:40:10 10° NNE 09:44:47 56° E 09:49:25 10° S
H-2A R/B 2.6 09:42:47 10° SSW 09:46:46 38° W 09:50:52 10° NNW
STARLINK-1208 3.6 09:43:11 10° NW 09:47:16 62° SW 09:51:21 10° SE
SAR-Lupe-1 4.2 09:48:01 10° SSE 09:51:33 80° ENE 09:55:06 10° N
STARLINK-1271 3.7 09:48:12 10° WNW 09:52:15 55° SW 09:56:18 10° SSE
deb Chang Zheng 4 3.5 09:48:45 10° NNE 09:53:04 84° WNW 09:57:21 10° SSW
USA 234 3.4 09:47:05 10° NE 09:53:37 74° NW 10:00:07 10° SW
STARLINK-26 3.2 09:50:48 11° SW 09:54:01 73° SE 09:57:27 10° NE
Cosmos 2058 3.0 09:50:42 10° SSW 09:54:48 59° W 09:58:58 10° N
ADEOS II 4.0 09:52:16 10° NNW 09:54:58 14° WNW 09:57:39 10° W
STARLINK-80 4.1 09:52:20 10° SSW 09:56:00 48° SE 09:59:40 10° ENE
Cosmos 1697 Rocket 4.3 09:52:27 10° W 09:56:29 20° NW 10:00:33 10° N
Cosmos 2150 Rocket 3.9 09:51:20 10° NNW 09:56:30 71° WSW 10:01:35 10° S
Lacrosse 4 Rocket 1.7 09:52:57 10° NW 09:57:03 44° WSW 10:01:01 10° S
STARLINK-1154 3.8 09:53:13 10° WNW 09:57:14 49° SW 10:01:13 10° SSE
Cosmos 2227 Rocket 3.7 09:54:22 10° WNW 09:57:36 16° W 10:00:50 10° SW
STARLINK-1317 3.8 09:58:36 10° SSW 10:01:53 47° SE 10:05:11 10° ENE
STARLINK-1197 3.9 09:58:14 10° WNW 10:02:11 44° SW 10:06:07 10° SSE
SL-16 R/B 2.4 09:56:40 10° SSW 10:02:18 76° ESE 10:07:58 10° NNE
Cosmos 1408 2.6 09:58:40 10° S 10:02:22 89° E 10:06:05 10° N
CZ-3 R/B 4.1 09:40:33 10° SW 10:04:16 34° S 10:12:05 10° ESE
ARIANE 5 R/B 4.2 10:00:59 10° NNW 10:04:17 18° WNW 10:07:33 10° WSW
STARLINK-42 3.0 10:01:25 10° SW 10:04:36 76° SE 10:07:47 10° NE
CZ-4B R/B 1.2 10:02:00 10° SSE 10:05:02 87° ENE 10:08:06 10° N
STARLINK-1198 4.0 10:03:13 10° WNW 10:07:06 40° SW 10:10:58 10° SSE
STARLINK-1283 3.5 10:04:46 10° SW 10:08:26 69° SE 10:12:07 10° NE
Cosmos 2218 Rocket 4.2 10:05:22 10° S 10:11:38 82° E 10:18:01 10° N
MSX 4.2 10:06:08 10° N 10:11:41 50° WNW 10:17:10 10° SW
